When you browse on this site, cookies collect data to enhance your experience and personalize the content and advertising you see.
Visit our Privacy Policy to learn more. By continuing to use the site, you agree to this use of cookies and data.
  • In Romania
  • List of Countries
  • For 7 days
  • Water Temperature
  • Weather Map
  • Weather Widgets
  • user-avatar
    Login

    Hourly Weather Rio Branco

    Today, 16 December, Monday

    Time Temperature Precipitation Wind Pressure Humidity
    00:00 +25°C° 0.7 mm 1 mps 744 mmHg 96%
    01:00 +25°C° 0.7 mm 1 mps 744 mmHg 97%
    02:00 +25°C° 1.5 mm 1 mps 744 mmHg 98%
    03:00 +25°C° 1.5 mm 1 mps 744 mmHg 98%
    04:00 +25°C° 1.5 mm 1 mps 744 mmHg 98%
    05:00 +25°C° 0.3 mm 1 mps 744 mmHg 98%
    06:00 +23°C° 0.3 mm 0 mps 745 mmHg 97%
    07:00 +24°C° 0.3 mm 0 mps 746 mmHg 97%
    08:00 +25°C° 0.4 mm 0 mps 746 mmHg 94%
    09:00 +28°C° 0.4 mm 1 mps 746 mmHg 92%
    10:00 +28°C° 0.4 mm 1 mps 746 mmHg 90%
    11:00 +29°C° 1.5 mm 1 mps 745 mmHg 86%
    12:00 +30°C° 1.5 mm 1 mps 744 mmHg 83%
    13:00 +31°C° 1.5 mm 1 mps 743 mmHg 80%
    14:00 +31°C° 0.3 mm 1 mps 742 mmHg 78%
    15:00 +31°C° 0.3 mm 1 mps 741 mmHg 76%
    16:00 +31°C° 0.3 mm 1 mps 740 mmHg 74%
    17:00 +29°C° 0 mm 1 mps 741 mmHg 77%
    18:00 +26°C° 0 mm 0 mps 741 mmHg 80%
    19:00 +25°C° 0 mm 0 mps 741 mmHg 83%
    20:00 +25°C° 0 mm 0 mps 742 mmHg 83%
    21:00 +24°C° 0 mm 0 mps 743 mmHg 83%
    22:00 +26°C° 0 mm 1 mps 743 mmHg 83%
    23:00 +26°C° 0 mm 1 mps 743 mmHg 84%

    Tomorrow, 17 December, Tuesday

    Time Temperature Precipitation Wind Pressure Humidity
    00:00 +26°C° 0 mm 1 mps 743 mmHg 85%
    01:00 +25°C° 0 mm 1 mps 742 mmHg 87%
    02:00 +25°C° 0.1 mm 1 mps 742 mmHg 89%
    03:00 +23°C° 0.1 mm 0 mps 742 mmHg 91%
    04:00 +23°C° 0.1 mm 0 mps 742 mmHg 94%
    05:00 +23°C° 0.3 mm 0 mps 743 mmHg 92%
    06:00 +24°C° 0.3 mm 0 mps 743 mmHg 90%
    07:00 +25°C° 0.3 mm 0 mps 744 mmHg 88%
    08:00 +29°C° 0 mm 1 mps 744 mmHg 79%
    09:00 +31°C° 0 mm 1 mps 744 mmHg 71%
    10:00 +33°C° 0 mm 1 mps 744 mmHg 63%
    11:00 +33°C° 0.1 mm 1 mps 743 mmHg 61%
    12:00 +34°C° 0.1 mm 1 mps 742 mmHg 60%
    13:00 +34°C° 0.1 mm 1 mps 741 mmHg 58%
    14:00 +34°C° 0.3 mm 1 mps 740 mmHg 62%
    15:00 +34°C° 0.3 mm 1 mps 740 mmHg 66%
    16:00 +31°C° 0.3 mm 0 mps 739 mmHg 69%
    17:00 +29°C° 0.1 mm 0 mps 739 mmHg 74%
    18:00 +28°C° 0.1 mm 0 mps 740 mmHg 78%
    19:00 +26°C° 0.1 mm 0 mps 740 mmHg 82%
    20:00 +25°C° 1 mm 0 mps 741 mmHg 86%
    21:00 +27°C° 1 mm 1 mps 742 mmHg 90%
    22:00 +26°C° 1 mm 1 mps 743 mmHg 94%
    23:00 +26°C° 1.6 mm 1 mps 742 mmHg 95%

    Day after tomorrow, 18 December, Wednesday

    Time Temperature Precipitation Wind Pressure Humidity
    00:00 +25°C° 1.6 mm 1 mps 742 mmHg 97%
    01:00 +25°C° 1.6 mm 1 mps 741 mmHg 98%
    02:00 +25°C° 0.7 mm 1 mps 742 mmHg 98%
    03:00 +25°C° 0.7 mm 1 mps 742 mmHg 98%
    04:00 +25°C° 0.7 mm 1 mps 742 mmHg 98%
    05:00 +25°C° 0.8 mm 1 mps 743 mmHg 98%
    06:00 +26°C° 0.8 mm 1 mps 743 mmHg 97%
    07:00 +26°C° 0.8 mm 1 mps 744 mmHg 96%
    08:00 +26°C° 1.9 mm 1 mps 744 mmHg 97%
    09:00 +26°C° 1.9 mm 1 mps 745 mmHg 97%
    10:00 +26°C° 1.9 mm 1 mps 745 mmHg 97%
    11:00 +26°C° 2.2 mm 1 mps 744 mmHg 98%
    12:00 +23°C° 2.2 mm 0 mps 744 mmHg 98%
    13:00 +23°C° 2.2 mm 0 mps 743 mmHg 99%
    14:00 +23°C° 0.4 mm 0 mps 742 mmHg 99%
    15:00 +25°C° 0.4 mm 1 mps 742 mmHg 99%
    16:00 +25°C° 0.4 mm 1 mps 742 mmHg 98%
    17:00 +25°C° 0 mm 1 mps 742 mmHg 99%
    18:00 +25°C° 0 mm 1 mps 743 mmHg 99%
    19:00 +25°C° 0 mm 1 mps 743 mmHg 99%
    20:00 +25°C° 0 mm 1 mps 743 mmHg 99%
    21:00 +22°C° 0 mm 0 mps 744 mmHg 99%
    22:00 +22°C° 0 mm 0 mps 744 mmHg 98%
    23:00 +22°C° 0 mm 0 mps 743 mmHg 99%

    19 December, Thursday

    Time Temperature Precipitation Wind Pressure Humidity
    00:00 +22°C° 0 mm 0 mps 743 mmHg 99%
    01:00 +22°C° 0 mm 0 mps 743 mmHg 99%
    02:00 +22°C° 0 mm 0 mps 743 mmHg 98%
    03:00 +22°C° 0 mm 0 mps 743 mmHg 98%
    04:00 +22°C° 0 mm 0 mps 743 mmHg 98%
    05:00 +22°C° 0 mm 0 mps 744 mmHg 97%
    06:00 +23°C° 0 mm 0 mps 744 mmHg 96%
    07:00 +24°C° 0 mm 0 mps 745 mmHg 95%
    08:00 +25°C° 0.1 mm 0 mps 745 mmHg 88%
    09:00 +27°C° 0.1 mm 0 mps 745 mmHg 82%
    10:00 +28°C° 0.1 mm 0 mps 745 mmHg 75%
    11:00 +29°C° 0.2 mm 0 mps 744 mmHg 72%
    12:00 +30°C° 0.2 mm 0 mps 743 mmHg 68%
    13:00 +31°C° 0.2 mm 0 mps 742 mmHg 65%
    14:00 +30°C° 0.6 mm 0 mps 742 mmHg 70%
    15:00 +30°C° 0.6 mm 0 mps 742 mmHg 75%
    16:00 +29°C° 0.6 mm 0 mps 741 mmHg 80%
    17:00 +28°C° 0.4 mm 0 mps 742 mmHg 84%
    18:00 +28°C° 0.4 mm 1 mps 742 mmHg 89%
    19:00 +26°C° 0.4 mm 1 mps 743 mmHg 94%
    20:00 +26°C° 0.3 mm 1 mps 743 mmHg 94%
    21:00 +26°C° 0.3 mm 1 mps 744 mmHg 95%
    22:00 +26°C° 0.3 mm 1 mps 744 mmHg 95%
    23:00 +25°C° 0 mm 1 mps 744 mmHg 96%

    20 December, Friday

    Time Temperature Precipitation Wind Pressure Humidity
    00:00 +25°C° 0 mm 1 mps 743 mmHg 96%
    01:00 +25°C° 0 mm 1 mps 743 mmHg 96%
    02:00 +25°C° 0 mm 1 mps 743 mmHg 96%
    03:00 +25°C° 0 mm 1 mps 743 mmHg 96%
    04:00 +25°C° 0 mm 1 mps 743 mmHg 97%
    05:00 +25°C° 0.4 mm 1 mps 744 mmHg 96%
    06:00 +25°C° 0.4 mm 1 mps 744 mmHg 96%
    07:00 +26°C° 0.4 mm 1 mps 745 mmHg 95%
    08:00 +27°C° 0.5 mm 1 mps 745 mmHg 93%
    09:00 +28°C° 0.5 mm 2 mps 745 mmHg 90%
    10:00 +29°C° 0.5 mm 2 mps 745 mmHg 87%
    11:00 +29°C° 0.9 mm 2 mps 744 mmHg 85%
    12:00 +30°C° 0.9 mm 2 mps 744 mmHg 82%
    13:00 +31°C° 0.9 mm 2 mps 743 mmHg 80%
    14:00 +31°C° 0.8 mm 1 mps 742 mmHg 81%
    15:00 +30°C° 0.8 mm 1 mps 742 mmHg 82%
    16:00 +30°C° 0.8 mm 1 mps 741 mmHg 83%
    17:00 +29°C° 0.3 mm 1 mps 742 mmHg 86%
    18:00 +28°C° 0.3 mm 1 mps 742 mmHg 89%
    19:00 +25°C° 0.3 mm 0 mps 743 mmHg 92%
    20:00 +26°C° 1.6 mm 1 mps 743 mmHg 94%
    21:00 +26°C° 1.6 mm 1 mps 744 mmHg 96%
    22:00 +25°C° 1.6 mm 2 mps 744 mmHg 97%
    23:00 +25°C° 2.1 mm 2 mps 744 mmHg 98%

    21 December, Saturday

    Time Temperature Precipitation Wind Pressure Humidity
    00:00 +25°C° 2.1 mm 2 mps 743 mmHg 98%
    01:00 +25°C° 2.1 mm 2 mps 743 mmHg 98%
    02:00 +24°C° 3 mm 2 mps 743 mmHg 98%
    03:00 +24°C° 3 mm 2 mps 743 mmHg 98%
    04:00 +24°C° 3 mm 2 mps 743 mmHg 98%
    05:00 +24°C° 1.5 mm 2 mps 744 mmHg 98%
    06:00 +24°C° 1.5 mm 2 mps 745 mmHg 98%
    07:00 +24°C° 1.5 mm 2 mps 745 mmHg 98%
    08:00 +24°C° 0.7 mm 2 mps 745 mmHg 98%
    09:00 +24°C° 0.7 mm 2 mps 746 mmHg 98%
    10:00 +25°C° 0.7 mm 2 mps 746 mmHg 98%
    11:00 +26°C° 0.2 mm 2 mps 745 mmHg 94%
    12:00 +27°C° 0.2 mm 2 mps 744 mmHg 90%
    13:00 +28°C° 0.2 mm 2 mps 743 mmHg 86%
    14:00 +28°C° 0 mm 2 mps 743 mmHg 82%
    15:00 +29°C° 0 mm 1 mps 742 mmHg 79%
    16:00 +29°C° 0 mm 1 mps 741 mmHg 76%
    17:00 +28°C° 0 mm 1 mps 742 mmHg 81%
    18:00 +27°C° 0 mm 1 mps 742 mmHg 86%
    19:00 +23°C° 0 mm 0 mps 742 mmHg 91%
    20:00 +23°C° 0 mm 0 mps 743 mmHg 91%
    21:00 +23°C° 0 mm 0 mps 743 mmHg 91%
    22:00 +23°C° 0 mm 0 mps 744 mmHg 92%
    23:00 +23°C° 0 mm 0 mps 744 mmHg 91%
    Show more